Location: Newark
(21.1200°N, 73.4000°E)
Time: 03:28:58
(UTC+00:00)

Explorer 11/Cluster Stage 4 - Pass Details

Date: 29 January 2020
Orbit: 467 x 1259 km, 28.8° (Epoch: 18 February)

Event Time Altitude Azimuth Distance (km) Brightness Sun altitude
Rises 15:01:02 0° 270° (W) 3,797 11.3 -29.4°
Reaches altitude 10° 15:05:25 10° 248° (WSW) 2,655 10.1 -30.5°
Maximum altitude 15:08:30 14° 218° (SW) 2,237 9.4 -31.2°
Drops below altitude 10° 15:11:20 10° 188° (S) 2,365 9.2 -31.8°
Enters shadow 15:12:16 - 180° (S) 2,512 9.2 -32.0°
Sets 15:14:51 0° 162° (SSE) 3,107 - -32.6°
